Погода в Данилове

Россия / Владимирская область     55°24′30″N   41°24′27″E
темп.,
°C
ветер,
м/с
пор.,
м/с
влажн.,
%
обл.,
%
осадки,
мм/ч
давл.,
гПа
погр.,
м
3 августа, вт
вт300:00+20юв4117849 0.1 1005205
03:00+19з3978100 0.1 1006274
06:00+20ююз3783100 0.0 1007251
09:00+22юз4673100 0.1 1008637
12:00+24юз3564100 0.1 1008947
15:00+26юз465098 0.8 10081922
18:00+24зсз465399 0.0 10081098
21:00+20зсз376837 0.0 1010224
4 августа, ср
ср400:00+16зсз248296 0.0 101276
03:00+17зсз2668100 0.0 1012198
06:00+15зсз267490 0.0 1014168
09:00+21сз244739 0.0 1014800
12:00+24зсз3535100 0.0 10142602
15:00+22сз354893 0.0 1014653
18:00+21зсз244839 0.0 1015495
21:00+16зсз226556 0.0 101615
5 августа, чт
чт500:00+16сз246298 0.0 101778
03:00+14зсз2268100 0.0 101720
06:00+16с1261100 0.0 101853
09:00+21всв11456 0.0 1018667
12:00+25юз1234100 0.0 10182447
15:00+24зюз1239100 0.0 10171345
18:00+23ю234396 0.0 1016410
21:00+18юв225496 0.0 101612
6 августа, пт
пт600:00+17вюв1158100 0.0 101626
03:00+16сз2367100 0.1 101681
06:00+15в3884100 0.4 1015197
09:00+15юв3885100 0.9 1015245
12:00+17ю31082100 0.9 1015453
15:00+15юв2695100 2.8 1015244
18:00+15в3494100 1.0 1014102
21:00+15всв41092100 1.1 1014247
7 августа, сб
сб700:00+15св4992100 0.0 1013233
03:00+15св379387 0.0 1013175
06:00+16юв2693100 0.6 1014162
09:00+17ююв2284100 1.5 101455
12:00+18юв2281100 0.1 101499
15:00+26всв3546100 0.1 1014692
18:00+24всв475788 0.0 1014255
21:00+18всв497118 0.0 1015153